This demonstration page uses our WeatherBlox Daily Observations layout. Learn more.

Hourly Observations for September 14, 2019

Temp ( °F °C ) Dew Point ( °F °C ) Humidity (%) Winds ( mph kmh ) Pressure ( in mb ) Visibility ( mi km ) Precip ( " mm )
12:15 am 00:15 Clear 67 19.2 55 13 67 67 S 12 19 30.05 1018 10 16.0934 0 0
12:35 am 00:35 Clear 67 19.5 56 13.1 67 67 S 10 17 30.05 1018 10 16.0934 0 0
12:55 am 00:55 Clear 68 19.8 55 13 65 65 S 20 31 30.05 1018 10 16.0934 0 0
1:15 am 01:15 Clear 67 19.6 55 13 66 66 S 17 28 30.05 1018 10 16.0934 0 0
1:35 am 01:35 Clear 67 19.3 56 13.4 69 69 S 14 22 30.05 1018 10 16.0934 0 0
1:55 am 01:55 Clear 66 19 56 13.6 71 71 S 13 20 30.05 1017 10 16.0934 0 0
2:15 am 02:15 Clear 66 18.7 57 14 74 74 S 15 24 30.06 1018 10 16.0934 0 0
2:35 am 02:35 Clear 65 18.6 58 14.5 77 77 S 13 20 30.05 1018 10 16.0934 0 0
2:55 am 02:55 Clear 65 18.3 59 14.8 80 80 S 12 19 30.04 1017 10 16.0934 0 0
3:15 am 03:15 Clear 64 18 59 15.1 83 83 S 10 17 30.03 1017 10 16.0934 0 0
3:35 am 03:35 Clear 64 18 60 15.5 85 85 S 9 15 30.03 1017 10 16.0934 0 0
3:55 am 03:55 Clear 64 18 61 16 88 88 S 10 17 30.02 1017 10 16.0934 0 0
4:15 am 04:15 Clear 65 18.2 62 16.6 90 90 S 10 17 30.02 1017 10 16.0934 0 0
4:35 am 04:35 Clear 65 18.5 63 17.1 92 92 S 10 17 30.02 1017 10 16.0934 0 0
4:55 am 04:55 Clear 66 18.7 63 17.3 92 92 S 9 15 30.02 1017 10 16.0934 0 0
5:15 am 05:15 Partly Cloudy 65 18.5 64 17.5 94 94 S 9 15 30.02 1017 10 16.0934 0 0
5:35 am 05:35 Partly Cloudy 65 18.1 64 17.5 96 96 S 9 15 30.01 1016 10 16.0934 0 0
5:55 am 05:55 Partly Cloudy 64 17.9 63 17.2 96 96 SSW 9 15 30.01 1016 10 16.0934 0 0
6:15 am 06:15 Partly Cloudy 64 17.6 63 17.2 98 98 SSW 8 13 30.01 1016 10 16.0934 0 0
6:35 am 06:35 Partly Cloudy 64 17.5 63 17.3 99 99 S 9 15 30.01 1016 10 16.0934 0 0
6:55 am 06:55 Clear 64 17.6 64 17.5 99 99 S 8 13 30.01 1016 10 16.0934 0 0
7:15 am 07:15 Clear 64 17.5 64 17.5 100 100 S 10 17 30.01 1016 10 16.0934 0 0
7:35 am 07:35 Sunny 64 17.5 64 17.5 100 100 S 10 17 30.02 1017 10 16.0934 0 0
7:55 am 07:55 Sunny 64 17.7 64 17.7 100 100 S 12 19 30.02 1016 10 16.0934 0 0
8:15 am 08:15 Partly Cloudy 64 18 64 18 100 100 S 9 15 30.01 1016 10 16.0934 0 0
8:35 am 08:35 Cloudy 65 18.3 65 18.2 99 99 S 9 15 30.01 1016 7 11.26538 0 0
8:55 am 08:55 Cloudy 66 18.7 66 18.7 100 100 SSW 9 15 30.02 1017 7 11.26538 0 0
9:15 am 09:15 Cloudy 67 19.6 67 19.2 98 98 S 9 15 30 1016 10 16.0934 0 0
9:35 am 09:35 Cloudy 69 20.7 67 19.4 92 92 SSW 13 20 29.99 1016 10 16.0934 0 0
9:55 am 09:55 Mostly Cloudy 71 21.9 67 19.5 86 86 SSW 14 22 29.98 1015 10 16.0934 0 0
10:15 am 10:15 Partly Cloudy 73 22.7 67 19.5 82 82 SSW 14 22 29.96 1015 10 16.0934 0 0
10:35 am 10:35 Sunny 74 23.3 67 19.3 78 78 SW 16 26 29.96 1015 10 16.0934 0 0
10:55 am 10:55 Sunny 75 24.1 67 19.7 77 77 SW 15 24 29.95 1014 10 16.0934 0 0
11:15 am 11:15 Partly Cloudy 76 24.4 67 19.6 75 75 SSW 12 19 29.95 1014 10 16.0934 0 0
11:35 am 11:35 Partly Cloudy 77 25.1 68 19.8 73 73 SW 10 17 29.95 1014 10 16.0934 0 0
11:55 am 11:55 Partly Cloudy 78 25.4 67 19.6 70 70 SW 13 20 29.93 1014 10 16.0934 0 0
12:15 pm 12:15 Sunny 79 25.9 68 19.9 70 70 WSW 8 13 29.92 1013 10 16.0934 0 0
12:35 pm 12:35 Sunny 80 26.4 68 20 68 68 WSW 9 15 29.93 1013 10 16.0934 0 0
12:55 pm 12:55 Sunny 80 26.9 68 20.1 66 66 SW 9 15 29.91 1013 10 16.0934 0 0
1:15 pm 13:15 Sunny 81 27 68 19.9 65 65 SSW 8 13 29.9 1013 10 16.0934 0 0
1:35 pm 13:35 Sunny 81 27.2 68 19.9 64 64 S 8 13 29.89 1012 10 16.0934 0 0
1:55 pm 13:55 Sunny 82 27.9 68 20.1 63 63 SSW 12 19 29.87 1012 10 16.0934 0 0
2:15 pm 14:15 Sunny 83 28.2 68 20.1 61 61 S 14 22 29.87 1012 10 16.0934 0 0
2:35 pm 14:35 Sunny 84 28.7 68 20.2 60 60 SSW 10 17 29.86 1011 10 16.0934 0 0
2:55 pm 14:55 Sunny 84 29.1 67 19.6 57 57 SW 6 9 29.85 1011 10 16.0934 0 0
3:15 pm 15:15 Sunny 85 29.2 67 19.7 57 57 SW 9 15 29.84 1011 10 16.0934 0 0
3:35 pm 15:35 Sunny 85 29.5 67 19.6 55 55 SSW 12 19 29.84 1011 10 16.0934 0 0
3:55 pm 15:55 Sunny 86 29.8 67 19.6 54 54 SSW 12 19 29.84 1010 10 16.0934 0 0
4:15 pm 16:15 Sunny 86 30.1 67 19.7 54 54 SSW 9 15 29.83 1010 10 16.0934 0 0
4:35 pm 16:35 Sunny 85 29.7 67 19.3 54 54 SW 3 6 29.83 1010 10 16.0934 0 0
4:55 pm 16:55 Sunny 86 29.9 67 19.4 53 53 SW 8 13 29.83 1010 10 16.0934 0 0
5:15 pm 17:15 Sunny 86 30 65 18.6 50 50 SW 5 7 29.82 1010 10 16.0934 0 0
5:35 pm 17:35 Sunny 86 30.1 66 18.7 50 50 SW 5 7 29.82 1010 10 16.0934 0 0
5:55 pm 17:55 Sunny 86 30.1 65 18.3 49 49 S 6 9 29.83 1010 10 16.0934 0 0
6:15 pm 18:15 Sunny 85 29.7 67 19.3 54 54 S 5 7 29.82 1010 10 16.0934 0 0
6:35 pm 18:35 Sunny 84 29 69 20.4 60 60 S 3 6 29.82 1010 10 16.0934 0 0
6:55 pm 18:55 Sunny 83 28.4 69 20.4 62 62 Calm 29.83 1010 10 16.0934 0 0
7:15 pm 19:15 Sunny 82 28 68 20.2 63 63 SSW 3 6 29.83 1010 10 16.0934 0 0
7:35 pm 19:35 Sunny 81 27 68 20.2 66 66 SSW 3 6 29.85 1011 10 16.0934 0 0
7:55 pm 19:55 Clear 79 26.1 69 20.3 70 70 S 6 9 29.85 1011 10 16.0934 0 0
8:15 pm 20:15 Clear 77 25 68 20 74 74 SSW 3 6 29.87 1011 10 16.0934 0 0
8:35 pm 20:35 Clear 76 24.2 68 19.9 77 77 SSW 6 9 29.87 1012 10 16.0934 0 0
8:55 pm 20:55 Clear 74 23.6 67 19.5 78 78 SSW 6 9 29.88 1012 10 16.0934 0 0
9:15 pm 21:15 Clear 75 24.1 66 19.1 74 74 SSW 5 7 29.87 1012 10 16.0934 0 0
9:55 pm 21:55 Clear 73 22.6 66 18.7 79 79 SSW 5 7 29.9 1012 10 16.0934 0 0
10:15 pm 22:15 Clear 68 20 64 18 88 88 SSW 3 6 29.92 1013 10 16.0934 0 0
10:35 pm 22:35 Clear 68 19.8 64 17.6 87 87 SSW 3 6 29.92 1013 10 16.0934 0 0
10:55 pm 22:55 Clear 68 20.2 63 17.4 84 84 Calm 29.92 1013 10 16.0934 0 0
11:15 pm 23:15 Clear 66 18.7 63 17.1 90 90 Calm 29.94 1014 10 16.0934 0 0
11:35 pm 23:35 Clear 66 18.7 64 17.6 93 93 Calm 29.94 1014 10 16.0934 0 0
11:55 pm 23:55 Clear 64 17.8 63 17.2 96 96 NW 3 6 29.95 1014 10 16.0934 0 0

Powered by AerisWeather